[[{"header":{"parameterUnit":"m.s-1","parameterCategory":1,"la1":30.2991,"la2":30.254,"lo1":-89.0895,"lo2":-89.0444,"dy":0.0017,"dx":0.0017,"nx":28,"ny":28,"refTime":"2025-12-10T09:00:00:Z","depth":0,"parameterNumber":2,"parameterNumberName":"U-component_of_WINDS"},"data":[0,0,0,0,0,0,0,0,0,0,0,0,0,0,0,0,0,0,0,0,0,0,0,0,0,0,0,0,0,0,0,0,0,0,0,0,0,0,0,0,0,0,0,0,0,0,0,0,0,0,0,0,0,0,0,0,0,0,-0.1985,-0.1985,0,-0.1952,-0.1952,-0.1952,-0.1903,-0.1902,-0.1901,-0.19,-0.1869,-0.1869,-0.1869,0,0,0,0,0,0,0,0,0,0,0,0,0,-0.201,-0.201,-0.1986,-0.1985,-0.1985,-0.1952,-0.1952,-0.1951,-0.1903,-0.1902,-0.1901,-0.19,-0.1869,-0.1869,-0.1869,0,0,0,0,0,0,0,0,0,0,0,0,0,-0.1991,-0.201,-0.1986,-0.1957,-0.1954,-0.1952,-0.1952,-0.1951,-0.1903,-0.1902,-0.1901,-0.19,-0.1869,-0.1869,-0.1869,-0.1894,0,0,-0.1868,-0.1868,0,0,0,0,0,0,0,0,-0.1992,-0.199,-0.1961,-0.1959,-0.1955,-0.193,-0.1949,-0.1932,-0.1904,-0.1923,-0.19,-0.1899,-0.189,-0.1889,-0.1885,-0.1892,-0.1891,-0.1868,-0.1868,-0.1868,-0.1868,0,0,0,0,0,0,0,-0.1993,-0.1991,-0.1972,-0.1961,-0.1957,-0.1946,-0.1942,-0.1946,-0.1914,-0.1921,-0.1917,-0.1914,-0.1889,-0.1885,-0.1884,-0.189,-0.1868,-0.1868,-0.1868,-0.1868,-0.1919,-0.192,0,0,0,0,0,0,-0.1999,-0.1992,-0.1973,-0.1971,-0.1971,-0.1947,-0.1942,-0.194,-0.1914,-0.1909,-0.1915,-0.1912,-0.1886,-0.1884,-0.1883,-0.1912,-0.1868,-0.1868,-0.1868,-0.1917,-0.1919,-0.192,0,0,0,0,0,0,-0.1999,-0.1997,-0.1975,-0.1981,-0.1977,-0.1948,-0.1945,-0.194,-0.1936,-0.1909,-0.1904,-0.1917,-0.1885,-0.1883,-0.1892,-0.191,-0.1868,-0.1868,-0.1916,-0.1918,-0.192,-0.1969,0,0,0,0,0,0,-0.2,-0.1998,-0.2006,-0.1981,-0.1977,-0.1983,-0.1947,-0.194,-0.1936,-0.1932,-0.191,-0.1905,-0.1884,-0.1892,-0.1892,-0.1909,-0.1868,-0.1914,-0.1917,-0.1919,-0.1966,-0.1972,-0.1978,0,0,0,0,0,-0.2001,-0.2021,-0.2007,-0.2005,-0.1987,-0.1984,-0.1982,-0.1956,-0.1938,-0.1947,-0.193,-0.1906,-0.1908,-0.1893,-0.1892,-0.191,-0.1913,-0.1916,-0.1919,-0.1963,-0.1971,-0.1978,0,0,0,0,0,0,-0.2049,-0.2018,-0.2001,-0.2014,-0.2002,-0.1976,-0.1986,-0.1966,-0.196,-0.1956,-0.1925,-0.192,-0.1933,-0.1922,-0.1907,-0.1934,-0.1907,-0.191,-0.194,-0.1948,-0.1954,-0.1957,-0.1868,0,0,0,0,0,-0.2061,-0.2061,-0.2034,-0.2048,-0.2043,-0.2016,-0.2014,-0.1995,-0.1982,-0.1977,-0.1961,-0.195,-0.1948,-0.1947,-0.1944,-0.1964,-0.1959,-0.1976,-0.1982,-0.1987,-0.1991,-0.2002,-0.2009,-0.1931,-0.1931,-0.1931,0,0,-0.2086,-0.2069,-0.2071,-0.2057,-0.2046,-0.2048,-0.2012,-0.2015,-0.2016,-0.1978,-0.1985,-0.1973,-0.1959,-0.1974,-0.1979,-0.1965,-0.2011,-0.1991,-0.1996,-0.1996,-0.2006,-0.2013,-0.202,-0.1933,-0.1932,-0.1932,0,0,-0.2133,-0.2119,-0.213,-0.2119,-0.2103,-0.2085,-0.2088,-0.2066,-0.2056,-0.2063,-0.2034,-0.2036,-0.2033,-0.2025,-0.202,-0.2066,-0.2044,-0.2066,-0.2099,-0.211,-0.2117,-0.2122,-0.2139,-0.2146,-0.2069,-0.2069,-0.2069,0,-0.2166,-0.2166,-0.2138,-0.2143,-0.2139,-0.2104,-0.2115,-0.2107,-0.2091,-0.2089,-0.2073,-0.207,-0.2058,-0.2071,-0.2082,-0.2079,-0.2083,-0.2068,-0.2118,-0.2123,-0.2127,-0.2144,-0.215,-0.2072,-0.2071,-0.2071,-0.2071,0,-0.2209,-0.221,-0.222,-0.2205,-0.2202,-0.2211,-0.2185,-0.2185,-0.2167,-0.2152,-0.216,-0.2145,-0.2139,-0.214,-0.2123,-0.2152,-0.2143,-0.2123,-0.2095,-0.2138,-0.2153,-0.2159,-0.2076,-0.2075,-0.2074,-0.2073,0,0,-0.2283,-0.2253,-0.2258,-0.2251,-0.2232,-0.2232,-0.224,-0.2234,-0.2235,-0.2226,-0.2232,-0.2232,-0.2213,-0.2208,-0.219,-0.2199,-0.2238,-0.2178,-0.2177,-0.2191,-0.227,-0.2286,-0.2294,-0.2224,-0.2225,-0.2226,-0.2272,0,-0.2326,-0.2336,-0.2312,-0.2329,-0.2331,-0.2298,-0.2305,-0.2295,-0.2281,-0.2281,-0.2266,-0.2267,-0.2242,-0.2239,-0.2247,-0.2232,-0.2254,-0.2228,-0.2231,-0.2231,-0.2236,-0.2301,-0.2317,-0.2362,-0.2277,-0.2278,-0.2279,0,-0.2377,-0.237,-0.2387,-0.2368,-0.2368,-0.2374,-0.2367,-0.2368,-0.2356,-0.2345,-0.234,-0.2319,-0.2327,-0.23,-0.2311,-0.2294,-0.2294,-0.2287,-0.2288,-0.2287,-0.2258,-0.2303,-0.2375,-0.2382,-0.2288,-0.2287,-0.2286,0,-0.2431,-0.2426,-0.2436,-0.2431,-0.2409,-0.2415,-0.2406,-0.2392,-0.2391,-0.2385,-0.2384,-0.2379,-0.2377,-0.2375,-0.2354,-0.2336,-0.2368,-0.2339,-0.236,-0.2361,-0.2368,-0.2368,-0.2442,-0.2368,-0.2368,-0.2368,-0.2367,0,-0.2482,-0.2494,-0.246,-0.2466,-0.248,-0.2452,-0.2466,-0.2454,-0.2443,-0.2448,-0.242,-0.2425,-0.2396,-0.2398,-0.2381,-0.2394,-0.2393,-0.2386,-0.2381,-0.2388,-0.2389,-0.2388,-0.2385,-0.2369,-0.2369,-0.2369,-0.2368,0,-0.2544,-0.2522,-0.2531,-0.2509,-0.2504,-0.2515,-0.2497,-0.2502,-0.2487,-0.2493,-0.2493,-0.247,-0.2471,-0.245,-0.2447,-0.2436,-0.2456,-0.2446,-0.246,-0.2457,-0.248,-0.2479,-0.2556,-0.2565,-0.2484,-0.2485,-0.2486,0,-0.2578,-0.2586,-0.2566,-0.2567,-0.2559,-0.256,-0.2559,-0.2533,-0.2532,-0.2521,-0.2528,-0.2527,-0.2525,-0.2529,-0.2512,-0.2511,-0.2501,-0.2528,-0.25,-0.2508,-0.2502,-0.2502,-0.2504,-0.2534,-0.2535,-0.2536,-0.2536,0,-0.2641,-0.263,-0.2628,-0.2623,-0.2622,-0.2617,-0.261,-0.2612,-0.2584,-0.2585,-0.2586,-0.2585,-0.2582,-0.2582,-0.2577,-0.2569,-0.2549,-0.2545,-0.255,-0.2558,-0.2566,-0.2563,-0.2477,-0.2543,-0.2543,-0.2542,-0.2542,-0.2542,-0.269,-0.2697,-0.2684,-0.2684,-0.2676,-0.2671,-0.2675,-0.2661,-0.2661,-0.2657,-0.2642,-0.2646,-0.2635,-0.2627,-0.2621,-0.2625,-0.2611,-0.2618,-0.262,-0.2623,-0.2627,-0.2565,-0.2624,-0.2623,-0.2623,-0.2623,-0.2623,0,-0.2753,-0.2743,-0.2743,-0.2734,-0.2735,-0.2715,-0.2707,-0.2708,-0.2712,-0.2704,-0.2702,-0.2705,-0.2705,-0.2689,-0.2687,-0.2693,-0.2684,-0.2694,-0.2694,-0.2692,-0.2639,-0.2635,-0.2702,-0.2702,-0.2702,-0.2702,-0.2702,-0.2702,-0.2785,-0.2796,-0.2784,-0.2791,-0.2782,-0.2785,-0.2782,-0.2778,-0.2771,-0.2775,-0.2775,-0.2764,-0.2753,-0.2751,-0.2751,-0.2747,-0.2748,-0.2761,-0.2754,-0.2704,-0.2696,-0.2689,-0.2685,-0.2761,-0.2762,-0.2807,-0.2808,-0.2808]},{"header":{"parameterUnit":"m.s-1","parameterCategory":1,"la1":30.2991,"la2":30.254,"lo1":-89.0895,"lo2":-89.0444,"dy":0.0017,"dx":0.0017,"nx":28,"ny":28,"refTime":"2025-12-10T09:00:00:Z","depth":0,"parameterNumber":3,"parameterNumberName":"V-component_of_WINDS"},"data":[0,0,0,0,0,0,0,0,0,0,0,0,0,0,0,0,0,0,0,0,0,0,0,0,0,0,0,0,0,0,0,0,0,0,0,0,0,0,0,0,0,0,0,0,0,0,0,0,0,0,0,0,0,0,0,0,0,0,0.2425,0.2425,0,0.2425,0.2425,0.2425,0.2421,0.2421,0.2421,0.2421,0.2421,0.2421,0.2421,0,0,0,0,0,0,0,0,0,0,0,0,0,0.2422,0.2422,0.2425,0.2425,0.2425,0.2425,0.2425,0.2425,0.2421,0.2421,0.2421,0.2421,0.2421,0.2421,0.2421,0,0,0,0,0,0,0,0,0,0,0,0,0,0.2423,0.2422,0.2425,0.2423,0.2423,0.2425,0.2425,0.2425,0.2421,0.2421,0.2421,0.2421,0.2421,0.2421,0.2421,0.2425,0,0,0.2422,0.2422,0,0,0,0,0,0,0,0,0.2423,0.2423,0.2424,0.2424,0.2423,0.2423,0.2424,0.2425,0.2421,0.2422,0.2421,0.2421,0.2422,0.2422,0.2422,0.2425,0.2425,0.2422,0.2422,0.2422,0.2422,0,0,0,0,0,0,0,0.2423,0.2423,0.2425,0.2424,0.2424,0.2422,0.2422,0.2424,0.2423,0.2422,0.2422,0.2422,0.2422,0.2422,0.2422,0.2425,0.2422,0.2422,0.2422,0.2422,0.2429,0.2429,0,0,0,0,0,0,0.2423,0.2423,0.2425,0.2425,0.2423,0.2423,0.2423,0.2423,0.2423,0.2423,0.2422,0.2422,0.2422,0.2422,0.2422,0.2426,0.2422,0.2422,0.2422,0.2429,0.2429,0.2429,0,0,0,0,0,0,0.2423,0.2423,0.2425,0.2424,0.2424,0.2423,0.2424,0.2423,0.2424,0.2423,0.2422,0.2423,0.2422,0.2422,0.2424,0.2426,0.2422,0.2422,0.2429,0.2429,0.2429,0.2433,0,0,0,0,0,0,0.2423,0.2423,0.2425,0.2424,0.2424,0.2427,0.2424,0.2424,0.2424,0.2424,0.2423,0.2423,0.2422,0.2424,0.2424,0.2426,0.2422,0.2429,0.2429,0.2429,0.2433,0.2433,0.2434,0,0,0,0,0,0.2423,0.2427,0.2425,0.2425,0.2426,0.2427,0.2428,0.2426,0.2424,0.2426,0.2425,0.2423,0.2425,0.2424,0.2424,0.2426,0.2429,0.2429,0.2429,0.2433,0.2433,0.2434,0,0,0,0,0,0,0.2428,0.2426,0.2425,0.2428,0.2428,0.2427,0.2429,0.2427,0.2427,0.2427,0.2425,0.2425,0.2427,0.2427,0.2425,0.2429,0.2427,0.2427,0.2429,0.243,0.243,0.243,0.2423,0,0,0,0,0,0.243,0.2431,0.2429,0.2432,0.2432,0.243,0.2431,0.2429,0.2429,0.2429,0.2428,0.2428,0.2429,0.2429,0.243,0.2433,0.2432,0.2434,0.2434,0.2435,0.2435,0.2435,0.2436,0.243,0.243,0.243,0,0,0.2433,0.2432,0.2433,0.2433,0.2433,0.2434,0.243,0.2432,0.2432,0.2429,0.2431,0.243,0.243,0.2432,0.2433,0.2432,0.2436,0.2435,0.2435,0.2435,0.2436,0.2436,0.2437,0.243,0.243,0.243,0,0,0.244,0.2439,0.2441,0.244,0.244,0.2438,0.2438,0.2437,0.2437,0.2438,0.2435,0.2436,0.2437,0.2436,0.2436,0.244,0.2439,0.2441,0.2443,0.2444,0.2444,0.2444,0.2445,0.2446,0.2441,0.2441,0.2441,0,0.2444,0.2445,0.2443,0.2444,0.2443,0.244,0.2442,0.2441,0.2441,0.244,0.2439,0.244,0.2439,0.244,0.2441,0.2441,0.2441,0.2441,0.2444,0.2445,0.2445,0.2446,0.2446,0.2441,0.2441,0.2441,0.2441,0,0.245,0.2451,0.2453,0.2451,0.2451,0.2453,0.245,0.245,0.2448,0.2447,0.2448,0.2447,0.2446,0.2446,0.2445,0.2447,0.2446,0.2445,0.2442,0.2446,0.2446,0.2447,0.2441,0.2441,0.2441,0.2441,0,0,0.2461,0.2457,0.2458,0.2457,0.2455,0.2455,0.2456,0.2455,0.2455,0.2454,0.2455,0.2455,0.2453,0.2452,0.2451,0.2451,0.2453,0.2449,0.2449,0.2449,0.2454,0.2456,0.2456,0.2452,0.2452,0.2452,0.2454,0,0.2467,0.2468,0.2465,0.2467,0.2467,0.2463,0.2463,0.2462,0.246,0.246,0.2458,0.2458,0.2455,0.2455,0.2455,0.2453,0.2454,0.2453,0.2452,0.2452,0.2452,0.2457,0.2458,0.2461,0.2455,0.2455,0.2455,0,0.2475,0.2473,0.2475,0.2471,0.2471,0.2472,0.247,0.247,0.2468,0.2466,0.2465,0.2462,0.2462,0.246,0.2459,0.2458,0.2457,0.2456,0.2456,0.2456,0.2454,0.2456,0.2462,0.2462,0.2455,0.2455,0.2455,0,0.2482,0.2481,0.2481,0.248,0.2476,0.2477,0.2475,0.2472,0.2472,0.247,0.2469,0.2468,0.2467,0.2466,0.2462,0.2461,0.2462,0.2459,0.246,0.246,0.2461,0.2461,0.2466,0.246,0.246,0.246,0.246,0,0.2489,0.249,0.2484,0.2484,0.2485,0.2481,0.2482,0.248,0.2477,0.2477,0.2473,0.2473,0.2468,0.2467,0.2465,0.2464,0.2464,0.2462,0.2461,0.2462,0.2462,0.2462,0.2462,0.246,0.246,0.246,0.246,0,0.2497,0.2494,0.2494,0.2489,0.2488,0.2489,0.2485,0.2485,0.2482,0.2481,0.2481,0.2477,0.2475,0.2471,0.2469,0.2467,0.2467,0.2466,0.2468,0.2467,0.2468,0.2468,0.2473,0.2473,0.2468,0.2468,0.2468,0,0.2502,0.2503,0.2498,0.2497,0.2495,0.2494,0.2493,0.2489,0.2488,0.2484,0.2484,0.2482,0.248,0.2477,0.2474,0.2471,0.247,0.2472,0.247,0.247,0.2469,0.2469,0.2469,0.2472,0.2472,0.2472,0.2473,0,0.2511,0.2508,0.2507,0.2504,0.2503,0.25,0.2498,0.2498,0.2492,0.2491,0.2489,0.2487,0.2484,0.2482,0.2478,0.2476,0.2473,0.2473,0.2473,0.2474,0.2475,0.2474,0.2469,0.2473,0.2473,0.2473,0.2473,0.2473,0.2517,0.2517,0.2513,0.2511,0.2509,0.2506,0.2505,0.2502,0.25,0.2497,0.2494,0.2492,0.2488,0.2484,0.2481,0.2479,0.2478,0.2478,0.2478,0.2478,0.2478,0.2475,0.2479,0.2479,0.2479,0.2479,0.2479,0,0.2525,0.2522,0.252,0.2517,0.2515,0.2511,0.2508,0.2507,0.2505,0.2501,0.2499,0.2496,0.2493,0.2489,0.2485,0.2484,0.2483,0.2484,0.2484,0.2483,0.248,0.248,0.2485,0.2485,0.2485,0.2485,0.2485,0.2485,0.2529,0.2529,0.2525,0.2523,0.252,0.2517,0.2516,0.2513,0.251,0.2507,0.2504,0.2501,0.2497,0.2493,0.249,0.2488,0.2487,0.2488,0.2487,0.2484,0.2483,0.2483,0.2483,0.2488,0.2488,0.249,0.249,0.249]}]]